Terminal Aerodrome Forecast
Issued by NWS

Home | Current Version | Previous Version | Graphics & Text | Print | Product List | Glossary On
Versions: 1 2 3 4 5 6 7 8 9 10 11 12 13 14 15 16 17 18 19
000
FTUS43 KGRB 311000 AAA
TAFCWA
TAF AMD
KCWA 311013Z 3110/0106 21005KT P6SM OVC025
     FM311300 27004KT P6SM OVC020
     FM311700 34007KT P6SM BKN025 OVC070
     FM312300 03008G15KT P6SM BKN025
      AMD LTD TO CLD VIS AND WIND TIL 311200=

USA.gov is the U.S. government's official web portal to all federal, state and local government web resources and services.